N1930G SPJC-SPZO

Flight info

Callsign N1930G
Flight time 1h 24m
Altitude 33000
Route PAKOL UM668 POVLO DCT DARKI
Aircraft STAR/L-SDFGRWY/S

Departure

Time 2026-04-25 02:41
Airport Jorge Chávez International Airport (SPJC)

Arrival

Time 2026-04-25 04:05
Airport Alejandro Velasco Astete International Airport (SPZO)
Time Latitude Longitude Altitude Speed Heading
2026-04-25 02:23 -12.01367 -77.11514 48 ft 0 kts 64°
2026-04-25 02:34 -12.01371 -77.11522 48 ft 2 kts 60°
2026-04-25 02:35 -12.01380 -77.11535 48 ft 2 kts 45°
2026-04-25 02:35 -12.01391 -77.11539 48 ft 0 kts 342°
2026-04-25 02:38 -12.01351 -77.11621 47 ft 21 kts 287°
2026-04-25 02:38 -12.01212 -77.11700 44 ft 26 kts 334°
2026-04-25 02:39 -12.01030 -77.11790 40 ft 32 kts 334°
2026-04-25 02:39 -12.00828 -77.11890 35 ft 28 kts 335°
2026-04-25 02:39 -12.00697 -77.11962 32 ft 14 kts 314°
2026-04-25 02:39 -12.00678 -77.12017 32 ft 12 kts 261°
2026-04-25 02:40 -12.00780 -77.12107 30 ft 29 kts 176°
2026-04-25 02:40 -12.01089 -77.11972 38 ft 71 kts 154°
2026-04-25 02:40 -12.01701 -77.11670 54 ft 125 kts 155°
2026-04-25 02:40 -12.02533 -77.11243 373 ft 139 kts 153°
2026-04-25 02:41 -12.03408 -77.10734 988 ft 149 kts 149°
2026-04-25 02:41 -12.04327 -77.10171 1542 ft 162 kts 149°
2026-04-25 02:41 -12.05352 -77.09554 1926 ft 177 kts 152°
2026-04-25 02:41 -12.06446 -77.08959 2459 ft 183 kts 150°
2026-04-25 02:42 -12.07313 -77.08015 3096 ft 184 kts 122°
2026-04-25 02:42 -12.07956 -77.06873 3765 ft 186 kts 118°
2026-04-25 02:42 -12.08563 -77.05696 4451 ft 189 kts 117°
2026-04-25 02:42 -12.09171 -77.04495 5156 ft 191 kts 117°
2026-04-25 02:43 -12.09781 -77.03284 5848 ft 193 kts 116°
2026-04-25 02:43 -12.10410 -77.02032 6398 ft 203 kts 116°
2026-04-25 02:43 -12.11085 -77.00752 7026 ft 204 kts 120°
2026-04-25 02:43 -12.11860 -76.99536 7685 ft 205 kts 122°
2026-04-25 02:44 -12.12623 -76.98307 8362 ft 205 kts 120°
2026-04-25 02:44 -12.13364 -76.97063 9033 ft 205 kts 121°
2026-04-25 02:44 -12.13862 -76.96243 9491 ft 205 kts 121°
2026-04-25 02:44 -12.14625 -76.95009 10151 ft 205 kts 122°
2026-04-25 02:45 -12.15621 -76.93373 11032 ft 203 kts 121°
2026-04-25 02:45 -12.16364 -76.92150 11715 ft 202 kts 121°
2026-04-25 02:45 -12.17105 -76.90939 12386 ft 201 kts 122°
2026-04-25 02:45 -12.17597 -76.90134 12822 ft 201 kts 122°
2026-04-25 02:46 -12.18336 -76.88925 13506 ft 200 kts 122°
2026-04-25 02:46 -12.19072 -76.87721 14155 ft 199 kts 121°
2026-04-25 02:46 -12.19808 -76.86523 14753 ft 200 kts 121°
2026-04-25 02:46 -12.20540 -76.85314 15337 ft 200 kts 120°
2026-04-25 02:47 -12.21267 -76.84103 15941 ft 200 kts 120°
2026-04-25 02:47 -12.22006 -76.82901 16549 ft 200 kts 120°
2026-04-25 02:47 -12.22742 -76.81698 17169 ft 199 kts 120°
2026-04-25 02:47 -12.23473 -76.80493 17788 ft 200 kts 119°
2026-04-25 02:48 -12.24206 -76.79290 18431 ft 199 kts 119°
2026-04-25 02:48 -12.24940 -76.78087 18966 ft 199 kts 119°
2026-04-25 02:48 -12.25670 -76.76884 19506 ft 199 kts 119°
2026-04-25 02:48 -12.26405 -76.75679 20043 ft 200 kts 119°
2026-04-25 02:49 -12.27141 -76.74473 20587 ft 200 kts 119°
2026-04-25 02:49 -12.27876 -76.73265 21161 ft 200 kts 119°
2026-04-25 02:49 -12.28612 -76.72055 21710 ft 201 kts 119°
2026-04-25 02:49 -12.29350 -76.70845 22286 ft 200 kts 119°
2026-04-25 02:50 -12.30088 -76.69631 22835 ft 201 kts 119°
2026-04-25 02:50 -12.30827 -76.68418 23392 ft 201 kts 119°
2026-04-25 02:50 -12.31561 -76.67212 23873 ft 202 kts 119°
2026-04-25 02:50 -12.32302 -76.65992 24324 ft 202 kts 119°
2026-04-25 02:51 -12.33048 -76.64767 24776 ft 204 kts 119°
2026-04-25 02:51 -12.33797 -76.63538 25225 ft 203 kts 119°
2026-04-25 02:51 -12.34545 -76.62306 25638 ft 205 kts 119°
2026-04-25 02:51 -12.35295 -76.61071 26077 ft 204 kts 119°
2026-04-25 02:52 -12.36048 -76.59834 26510 ft 205 kts 119°
2026-04-25 02:52 -12.36822 -76.58557 26749 ft 216 kts 119°
2026-04-25 02:52 -12.37631 -76.57230 26909 ft 229 kts 119°
2026-04-25 02:52 -12.38503 -76.55797 26989 ft 244 kts 119°
2026-04-25 02:53 -12.39386 -76.54347 27521 ft 232 kts 119°
2026-04-25 02:53 -12.40143 -76.52955 28179 ft 216 kts 107°
2026-04-25 02:53 -12.40535 -76.51514 28811 ft 205 kts 102°
2026-04-25 02:53 -12.40855 -76.50109 29314 ft 202 kts 100°
2026-04-25 02:54 -12.41157 -76.48704 29690 ft 203 kts 99°
2026-04-25 02:54 -12.41458 -76.47283 30036 ft 205 kts 101°
2026-04-25 02:54 -12.41869 -76.45874 30325 ft 209 kts 106°
2026-04-25 02:54 -12.42321 -76.44455 30630 ft 210 kts 104°
2026-04-25 02:55 -12.42726 -76.43019 30921 ft 210 kts 103°
2026-04-25 02:55 -12.43145 -76.41584 31195 ft 211 kts 104°
2026-04-25 02:55 -12.43582 -76.40144 31469 ft 212 kts 104°
2026-04-25 02:55 -12.44004 -76.38713 31741 ft 213 kts 103°
2026-04-25 02:56 -12.44428 -76.37254 31992 ft 214 kts 104°
2026-04-25 02:56 -12.44863 -76.35795 32262 ft 215 kts 104°
2026-04-25 02:56 -12.45301 -76.34321 32493 ft 216 kts 104°
2026-04-25 02:56 -12.45734 -76.32843 32713 ft 217 kts 103°
2026-04-25 02:57 -12.46172 -76.31358 32917 ft 220 kts 104°
2026-04-25 02:57 -12.46620 -76.29844 33025 ft 226 kts 104°
2026-04-25 02:57 -12.47081 -76.28281 33075 ft 233 kts 104°
2026-04-25 02:57 -12.47559 -76.26661 33099 ft 241 kts 104°
2026-04-25 02:58 -12.48052 -76.24993 33111 ft 249 kts 104°
2026-04-25 02:58 -12.48559 -76.23275 33117 ft 255 kts 104°
2026-04-25 02:58 -12.49075 -76.21523 33158 ft 259 kts 104°
2026-04-25 02:58 -12.49600 -76.19743 33162 ft 263 kts 104°
2026-04-25 02:59 -12.50132 -76.17937 33162 ft 267 kts 104°
2026-04-25 02:59 -12.50672 -76.16103 33162 ft 270 kts 104°
2026-04-25 02:59 -12.51218 -76.14251 33159 ft 273 kts 104°
2026-04-25 02:59 -12.51762 -76.12406 33161 ft 275 kts 104°
2026-04-25 03:00 -12.52315 -76.10522 33161 ft 277 kts 104°
2026-04-25 03:00 -12.52872 -76.08631 33163 ft 278 kts 104°
2026-04-25 03:00 -12.53432 -76.06730 33199 ft 279 kts 104°
2026-04-25 03:00 -12.53993 -76.04819 33200 ft 280 kts 104°
2026-04-25 03:01 -12.54555 -76.02909 33199 ft 280 kts 104°
2026-04-25 03:01 -12.55117 -76.00998 33171 ft 281 kts 104°
2026-04-25 03:01 -12.55681 -75.99081 33171 ft 281 kts 104°
2026-04-25 03:01 -12.56243 -75.97165 33171 ft 282 kts 104°
2026-04-25 03:02 -12.56808 -75.95241 33170 ft 282 kts 104°
2026-04-25 03:02 -12.57375 -75.93313 33171 ft 283 kts 104°
2026-04-25 03:02 -12.57941 -75.91385 33204 ft 283 kts 104°
2026-04-25 03:02 -12.58507 -75.89452 33203 ft 284 kts 104°
2026-04-25 03:03 -12.59076 -75.87516 33203 ft 284 kts 104°
2026-04-25 03:03 -12.59645 -75.85577 33202 ft 284 kts 104°
2026-04-25 03:03 -12.60214 -75.83636 33203 ft 284 kts 104°
2026-04-25 03:03 -12.60782 -75.81696 33203 ft 284 kts 104°
2026-04-25 03:04 -12.61350 -75.79760 33203 ft 284 kts 104°
2026-04-25 03:04 -12.61918 -75.77819 33230 ft 284 kts 104°
2026-04-25 03:04 -12.62484 -75.75885 33235 ft 284 kts 104°
2026-04-25 03:05 -12.63621 -75.72003 33237 ft 285 kts 104°
2026-04-25 03:05 -12.64181 -75.70088 33238 ft 284 kts 104°
2026-04-25 03:05 -12.64748 -75.68150 33239 ft 285 kts 104°
2026-04-25 03:05 -12.65317 -75.66204 33238 ft 285 kts 104°
2026-04-25 03:06 -12.65886 -75.64260 33237 ft 285 kts 104°
2026-04-25 03:06 -12.66454 -75.62316 33263 ft 285 kts 104°
2026-04-25 03:06 -12.67022 -75.60370 33258 ft 285 kts 104°
2026-04-25 03:06 -12.67591 -75.58423 33257 ft 286 kts 104°
2026-04-25 03:07 -12.68161 -75.56474 33252 ft 285 kts 104°
2026-04-25 03:07 -12.68729 -75.54528 33254 ft 285 kts 104°
2026-04-25 03:07 -12.69297 -75.52580 33254 ft 285 kts 104°
2026-04-25 03:07 -12.69864 -75.50637 33254 ft 285 kts 104°
2026-04-25 03:08 -12.70431 -75.48692 33281 ft 285 kts 104°
2026-04-25 03:08 -12.70998 -75.46747 33280 ft 285 kts 104°
2026-04-25 03:08 -12.71565 -75.44803 33279 ft 285 kts 104°
2026-04-25 03:08 -12.72132 -75.42858 33279 ft 285 kts 104°
2026-04-25 03:09 -12.72697 -75.40913 33279 ft 285 kts 104°
2026-04-25 03:09 -12.73257 -75.38993 33278 ft 285 kts 105°
2026-04-25 03:09 -12.73827 -75.37047 33277 ft 286 kts 104°
2026-04-25 03:09 -12.74393 -75.35093 33290 ft 287 kts 104°
2026-04-25 03:10 -12.74964 -75.33132 33288 ft 287 kts 104°
2026-04-25 03:10 -12.75534 -75.31176 33290 ft 288 kts 104°
2026-04-25 03:10 -12.76099 -75.29228 33290 ft 288 kts 104°
2026-04-25 03:10 -12.76665 -75.27284 33289 ft 288 kts 104°
2026-04-25 03:11 -12.77237 -75.25316 33289 ft 288 kts 104°
2026-04-25 03:11 -12.77807 -75.23353 33287 ft 288 kts 104°
2026-04-25 03:11 -12.78381 -75.21375 33288 ft 288 kts 104°
2026-04-25 03:11 -12.78817 -75.19874 33284 ft 287 kts 104°
2026-04-25 03:12 -12.79191 -75.18587 33288 ft 287 kts 104°
2026-04-25 03:12 -12.79764 -75.16614 33287 ft 288 kts 104°
2026-04-25 03:12 -12.80336 -75.14642 33286 ft 288 kts 104°
2026-04-25 03:13 -12.80907 -75.12674 33284 ft 289 kts 104°
2026-04-25 03:13 -12.81479 -75.10701 33286 ft 288 kts 104°
2026-04-25 03:13 -12.82049 -75.08735 33286 ft 289 kts 104°
2026-04-25 03:13 -12.82621 -75.06760 33291 ft 289 kts 104°
2026-04-25 03:14 -12.83192 -75.04786 33283 ft 289 kts 105°
2026-04-25 03:14 -12.83765 -75.02814 33284 ft 289 kts 105°
2026-04-25 03:14 -12.84337 -75.00839 33284 ft 289 kts 105°
2026-04-25 03:14 -12.84898 -74.98896 33284 ft 288 kts 105°
2026-04-25 03:15 -12.85470 -74.96925 33284 ft 288 kts 105°
2026-04-25 03:15 -12.86041 -74.94949 33284 ft 288 kts 105°
2026-04-25 03:15 -12.86611 -74.92979 33284 ft 288 kts 105°
2026-04-25 03:15 -12.87180 -74.91011 33284 ft 288 kts 105°
2026-04-25 03:16 -12.87749 -74.89040 33282 ft 288 kts 105°
2026-04-25 03:16 -12.88318 -74.87071 33282 ft 288 kts 105°
2026-04-25 03:16 -12.88887 -74.85102 33282 ft 288 kts 105°
2026-04-25 03:16 -12.89456 -74.83131 33282 ft 288 kts 105°
2026-04-25 03:17 -12.90025 -74.81161 33284 ft 288 kts 105°
2026-04-25 03:17 -12.90594 -74.79189 33281 ft 288 kts 105°
2026-04-25 03:17 -12.91155 -74.77244 33270 ft 288 kts 105°
2026-04-25 03:17 -12.91723 -74.75274 33270 ft 288 kts 105°
2026-04-25 03:18 -12.92290 -74.73310 33271 ft 288 kts 105°
2026-04-25 03:18 -12.92858 -74.71337 33270 ft 287 kts 105°
2026-04-25 03:18 -12.93426 -74.69368 33271 ft 287 kts 105°
2026-04-25 03:18 -12.93991 -74.67403 33270 ft 287 kts 105°
2026-04-25 03:19 -12.94557 -74.65440 33271 ft 287 kts 105°
2026-04-25 03:19 -12.95122 -74.63479 33249 ft 287 kts 105°
2026-04-25 03:19 -12.95688 -74.61511 33249 ft 287 kts 105°
2026-04-25 03:19 -12.96254 -74.59544 33248 ft 287 kts 105°
2026-04-25 03:20 -12.96811 -74.57608 33248 ft 287 kts 105°
2026-04-25 03:20 -12.97375 -74.55645 33247 ft 287 kts 105°
2026-04-25 03:20 -12.97938 -74.53685 33247 ft 287 kts 105°
2026-04-25 03:20 -12.98504 -74.51718 33246 ft 287 kts 105°
2026-04-25 03:21 -12.99067 -74.49757 33226 ft 287 kts 105°
2026-04-25 03:21 -12.99632 -74.47790 33227 ft 287 kts 105°
2026-04-25 03:21 -13.00197 -74.45823 33227 ft 287 kts 105°
2026-04-25 03:21 -13.00762 -74.43854 33227 ft 287 kts 105°
2026-04-25 03:22 -13.01325 -74.41892 33226 ft 287 kts 105°
2026-04-25 03:22 -13.01880 -74.39954 33235 ft 287 kts 105°
2026-04-25 03:22 -13.02443 -74.37987 33234 ft 287 kts 105°
2026-04-25 03:22 -13.03009 -74.36024 33233 ft 287 kts 105°
2026-04-25 03:23 -13.03571 -74.34057 33221 ft 287 kts 105°
2026-04-25 03:23 -13.04135 -74.32089 33221 ft 287 kts 105°
2026-04-25 03:23 -13.04698 -74.30125 33221 ft 287 kts 105°
2026-04-25 03:23 -13.05259 -74.28161 33222 ft 287 kts 105°
2026-04-25 03:24 -13.05824 -74.26188 33223 ft 287 kts 105°
2026-04-25 03:24 -13.06387 -74.24221 33224 ft 287 kts 105°
2026-04-25 03:24 -13.06950 -74.22254 33225 ft 287 kts 105°
2026-04-25 03:24 -13.07512 -74.20290 33213 ft 287 kts 105°
2026-04-25 03:25 -13.08073 -74.18326 33218 ft 287 kts 105°
2026-04-25 03:25 -13.08634 -74.16363 33217 ft 287 kts 105°
2026-04-25 03:25 -13.09188 -74.14424 33217 ft 286 kts 105°
2026-04-25 03:25 -13.09748 -74.12461 33217 ft 286 kts 105°
2026-04-25 03:26 -13.10308 -74.10500 33216 ft 286 kts 105°
2026-04-25 03:26 -13.10868 -74.08540 33216 ft 286 kts 105°
2026-04-25 03:26 -13.11425 -74.06584 33214 ft 286 kts 105°
2026-04-25 03:26 -13.11984 -74.04625 33214 ft 285 kts 105°
2026-04-25 03:27 -13.12543 -74.02670 33212 ft 285 kts 105°
2026-04-25 03:27 -13.13099 -74.00716 33213 ft 285 kts 105°
2026-04-25 03:27 -13.13657 -73.98759 33216 ft 286 kts 105°
2026-04-25 03:27 -13.14216 -73.96797 33214 ft 286 kts 105°
2026-04-25 03:28 -13.14774 -73.94836 33215 ft 286 kts 105°
2026-04-25 03:28 -13.15326 -73.92899 33219 ft 287 kts 105°
2026-04-25 03:28 -13.15886 -73.90932 33219 ft 287 kts 105°
2026-04-25 03:28 -13.16444 -73.88967 33219 ft 287 kts 105°
2026-04-25 03:29 -13.17003 -73.87005 33221 ft 286 kts 105°
2026-04-25 03:29 -13.17560 -73.85044 33220 ft 286 kts 105°
2026-04-25 03:29 -13.18117 -73.83086 33220 ft 286 kts 105°
2026-04-25 03:29 -13.18675 -73.81122 33220 ft 286 kts 105°
2026-04-25 03:30 -13.19234 -73.79156 33209 ft 287 kts 105°
2026-04-25 03:30 -13.19794 -73.77185 33210 ft 286 kts 105°
2026-04-25 03:30 -13.20343 -73.75247 33211 ft 286 kts 105°
2026-04-25 03:30 -13.20900 -73.73287 33211 ft 286 kts 105°
2026-04-25 03:31 -13.21457 -73.71324 33209 ft 286 kts 105°
2026-04-25 03:31 -13.22011 -73.69367 33207 ft 286 kts 105°
2026-04-25 03:31 -13.22568 -73.67409 33209 ft 285 kts 105°
2026-04-25 03:31 -13.22936 -73.66108 33209 ft 286 kts 105°
2026-04-25 03:32 -13.23490 -73.64151 33196 ft 285 kts 105°
2026-04-25 03:32 -13.24044 -73.62195 33195 ft 285 kts 105°
2026-04-25 03:32 -13.24598 -73.60243 33206 ft 285 kts 105°
2026-04-25 03:32 -13.25151 -73.58291 33205 ft 285 kts 105°
2026-04-25 03:33 -13.25704 -73.56334 33207 ft 285 kts 105°
2026-04-25 03:33 -13.26256 -73.54384 33207 ft 284 kts 105°
2026-04-25 03:33 -13.26809 -73.52428 33206 ft 284 kts 105°
2026-04-25 03:33 -13.27361 -73.50478 33205 ft 284 kts 105°
2026-04-25 03:34 -13.27912 -73.48530 33206 ft 284 kts 105°
2026-04-25 03:34 -13.28460 -73.46586 33208 ft 283 kts 105°
2026-04-25 03:34 -13.29010 -73.44641 33209 ft 284 kts 105°
2026-04-25 03:34 -13.29560 -73.42696 33208 ft 284 kts 105°
2026-04-25 03:35 -13.30109 -73.40749 33208 ft 284 kts 105°
2026-04-25 03:35 -13.30659 -73.38799 33208 ft 285 kts 105°
2026-04-25 03:35 -13.31207 -73.36862 33061 ft 290 kts 105°
2026-04-25 03:35 -13.31777 -73.34838 32741 ft 300 kts 105°
2026-04-25 03:36 -13.32366 -73.32749 32418 ft 308 kts 105°
2026-04-25 03:36 -13.32970 -73.30611 32100 ft 314 kts 105°
2026-04-25 03:36 -13.33581 -73.28438 31792 ft 318 kts 105°
2026-04-25 03:36 -13.34200 -73.26243 31488 ft 322 kts 105°
2026-04-25 03:37 -13.34824 -73.24025 31179 ft 324 kts 105°
2026-04-25 03:37 -13.35452 -73.21794 30887 ft 326 kts 105°
2026-04-25 03:37 -13.36084 -73.19549 30571 ft 328 kts 105°
2026-04-25 03:37 -13.36720 -73.17289 30196 ft 330 kts 105°
2026-04-25 03:38 -13.37358 -73.15017 29771 ft 332 kts 105°
2026-04-25 03:38 -13.37999 -73.12736 29352 ft 333 kts 105°
2026-04-25 03:38 -13.38643 -73.10447 28936 ft 335 kts 105°
2026-04-25 03:38 -13.39289 -73.08143 28559 ft 335 kts 105°
2026-04-25 03:39 -13.39936 -73.05843 28231 ft 335 kts 105°
2026-04-25 03:39 -13.40578 -73.03549 27905 ft 333 kts 105°
2026-04-25 03:39 -13.41213 -73.01291 27591 ft 333 kts 105°
2026-04-25 03:39 -13.41854 -72.99003 27275 ft 332 kts 105°
2026-04-25 03:40 -13.42492 -72.96724 26961 ft 332 kts 105°
2026-04-25 03:40 -13.43135 -72.94441 26663 ft 332 kts 105°
2026-04-25 03:40 -13.43770 -72.92165 26353 ft 331 kts 105°
2026-04-25 03:40 -13.44407 -72.89888 26050 ft 332 kts 105°
2026-04-25 03:41 -13.45062 -72.87615 25754 ft 332 kts 105°
2026-04-25 03:41 -13.45648 -72.85345 25643 ft 327 kts 103°
2026-04-25 03:41 -13.46242 -72.83108 25526 ft 323 kts 105°
2026-04-25 03:41 -13.46838 -72.80888 25401 ft 320 kts 104°
2026-04-25 03:42 -13.47414 -72.78679 25287 ft 319 kts 104°
2026-04-25 03:42 -13.48000 -72.76488 25166 ft 318 kts 104°
2026-04-25 03:42 -13.48580 -72.74292 25060 ft 317 kts 104°
2026-04-25 03:42 -13.49148 -72.72142 24949 ft 316 kts 104°
2026-04-25 03:43 -13.49728 -72.69957 24849 ft 315 kts 104°
2026-04-25 03:43 -13.50303 -72.67783 24761 ft 315 kts 104°
2026-04-25 03:43 -13.50875 -72.65613 24672 ft 314 kts 104°
2026-04-25 03:43 -13.51449 -72.63447 24584 ft 314 kts 104°
2026-04-25 03:44 -13.52021 -72.61280 24494 ft 314 kts 104°
2026-04-25 03:44 -13.52593 -72.59112 24407 ft 314 kts 104°
2026-04-25 03:44 -13.53167 -72.56944 24319 ft 315 kts 104°
2026-04-25 03:44 -13.53741 -72.54770 24232 ft 315 kts 104°
2026-04-25 03:45 -13.54314 -72.52591 24137 ft 316 kts 104°
2026-04-25 03:45 -13.54883 -72.50437 24051 ft 316 kts 104°
2026-04-25 03:45 -13.55458 -72.48254 23965 ft 316 kts 104°
2026-04-25 03:45 -13.56033 -72.46071 23880 ft 316 kts 104°
2026-04-25 03:46 -13.56610 -72.43890 23790 ft 316 kts 104°
2026-04-25 03:46 -13.57183 -72.41700 23670 ft 317 kts 104°
2026-04-25 03:46 -13.57761 -72.39510 23530 ft 318 kts 104°
2026-04-25 03:46 -13.58338 -72.37320 23399 ft 318 kts 104°
2026-04-25 03:47 -13.58916 -72.35121 23269 ft 319 kts 104°
2026-04-25 03:47 -13.59495 -72.32919 23141 ft 319 kts 104°
2026-04-25 03:47 -13.60076 -72.30709 22969 ft 321 kts 104°
2026-04-25 03:47 -13.60657 -72.28497 22784 ft 321 kts 104°
2026-04-25 03:48 -13.61239 -72.26280 22615 ft 321 kts 104°
2026-04-25 03:48 -13.61820 -72.24066 22443 ft 321 kts 104°
2026-04-25 03:48 -13.62400 -72.21861 22268 ft 319 kts 104°
2026-04-25 03:48 -13.62967 -72.19696 22096 ft 316 kts 104°
2026-04-25 03:49 -13.63538 -72.17521 22060 ft 315 kts 104°
2026-04-25 03:49 -13.64107 -72.15349 21905 ft 314 kts 104°
2026-04-25 03:49 -13.64676 -72.13181 21754 ft 314 kts 104°
2026-04-25 03:49 -13.65242 -72.11015 21604 ft 313 kts 104°
2026-04-25 03:50 -13.65809 -72.08852 21453 ft 313 kts 104°
2026-04-25 03:50 -13.66379 -72.06676 21065 ft 319 kts 104°
2026-04-25 03:50 -13.66952 -72.04490 20661 ft 314 kts 104°
2026-04-25 03:50 -13.67501 -72.02345 20320 ft 307 kts 103°
2026-04-25 03:51 -13.68088 -72.00257 19981 ft 301 kts 107°
2026-04-25 03:51 -13.68910 -71.98318 19641 ft 297 kts 116°
2026-04-25 03:51 -13.69842 -71.96445 19300 ft 293 kts 115°
2026-04-25 03:51 -13.70752 -71.94582 18958 ft 290 kts 117°
2026-04-25 03:52 -13.71806 -71.92821 18600 ft 288 kts 121°
2026-04-25 03:52 -13.72817 -71.91057 18211 ft 285 kts 118°
2026-04-25 03:52 -13.73799 -71.89314 17947 ft 279 kts 120°
2026-04-25 03:52 -13.74795 -71.87613 17679 ft 275 kts 120°
2026-04-25 03:53 -13.75681 -71.85887 17411 ft 270 kts 108°
2026-04-25 03:53 -13.75844 -71.83985 17209 ft 267 kts 83°
2026-04-25 03:53 -13.75436 -71.82139 17106 ft 263 kts 71°
2026-04-25 03:53 -13.74795 -71.80408 17008 ft 260 kts 69°
2026-04-25 03:54 -13.74203 -71.78640 16901 ft 257 kts 73°
2026-04-25 03:54 -13.73654 -71.76901 16800 ft 255 kts 71°
2026-04-25 03:54 -13.73077 -71.75212 16693 ft 252 kts 71°
2026-04-25 03:54 -13.72519 -71.73514 16590 ft 249 kts 72°
2026-04-25 03:55 -13.71759 -71.71929 16484 ft 248 kts 51°
2026-04-25 03:55 -13.70355 -71.70905 16276 ft 253 kts 22°
2026-04-25 03:55 -13.68621 -71.70633 15984 ft 256 kts
2026-04-25 03:55 -13.66825 -71.70659 15728 ft 256 kts 358°
2026-04-25 03:56 -13.65097 -71.71043 15566 ft 254 kts 340°
2026-04-25 03:56 -13.63570 -71.71972 15329 ft 256 kts 323°
2026-04-25 03:56 -13.62233 -71.73203 14973 ft 261 kts 316°
2026-04-25 03:56 -13.61045 -71.74588 14794 ft 253 kts 310°
2026-04-25 03:57 -13.60004 -71.76007 14547 ft 247 kts 307°
2026-04-25 03:57 -13.59033 -71.77468 14156 ft 248 kts 304°
2026-04-25 03:57 -13.58147 -71.78994 13902 ft 247 kts 300°
2026-04-25 03:57 -13.57351 -71.80554 13624 ft 247 kts 296°
2026-04-25 03:58 -13.56620 -71.82159 13238 ft 248 kts 294°
2026-04-25 03:58 -13.55994 -71.83803 12793 ft 248 kts 289°
2026-04-25 03:58 -13.55459 -71.85452 12404 ft 245 kts 290°
2026-04-25 03:58 -13.54925 -71.87117 11994 ft 243 kts 289°
2026-04-25 03:59 -13.54471 -71.88764 11459 ft 238 kts 287°
2026-04-25 03:59 -13.54037 -71.90400 10962 ft 233 kts 285°
2026-04-25 03:59 -13.53769 -71.91992 10792 ft 219 kts 275°
2026-04-25 03:59 -13.53630 -71.93478 11147 ft 200 kts 276°
2026-04-25 04:00 -13.53501 -71.94846 11651 ft 182 kts 275°
2026-04-25 04:00 -13.53448 -71.96082 12268 ft 167 kts 271°
2026-04-25 04:00 -13.53862 -71.97091 12585 ft 156 kts 207°
2026-04-25 04:00 -13.54808 -71.96809 12546 ft 158 kts 128°
2026-04-25 04:01 -13.55237 -71.95713 12573 ft 172 kts 100°
2026-04-25 04:01 -13.55412 -71.94477 12634 ft 178 kts 95°
2026-04-25 04:01 -13.55527 -71.93221 12710 ft 179 kts 93°
2026-04-25 04:01 -13.55615 -71.91935 12751 ft 181 kts 92°
2026-04-25 04:02 -13.55653 -71.90646 13000 ft 181 kts 88°
2026-04-25 04:02 -13.55598 -71.89349 13076 ft 182 kts 93°
2026-04-25 04:02 -13.55759 -71.88055 12969 ft 180 kts 97°
2026-04-25 04:02 -13.55609 -71.86860 12889 ft 162 kts 57°
2026-04-25 04:03 -13.54681 -71.86321 12793 ft 158 kts 359°
2026-04-25 04:03 -13.53748 -71.86845 12452 ft 165 kts 303°
2026-04-25 04:03 -13.53657 -71.88029 11833 ft 171 kts 253°
2026-04-25 04:03 -13.53975 -71.89160 11241 ft 158 kts 265°
2026-04-25 04:04 -13.53955 -71.90235 11056 ft 147 kts 278°
2026-04-25 04:04 -13.53838 -71.91269 10877 ft 144 kts 275°
2026-04-25 04:04 -13.53741 -71.92267 10730 ft 134 kts 277°
2026-04-25 04:04 -13.53654 -71.93114 10729 ft 104 kts 277°
2026-04-25 04:05 -13.53596 -71.93676 10755 ft 56 kts 276°
2026-04-25 04:05 -13.53588 -71.93984 10769 ft 36 kts 246°
2026-04-25 04:05 -13.53661 -71.94154 10779 ft 25 kts 247°
2026-04-25 04:05 -13.53661 -71.94361 10790 ft 25 kts 273°
2026-04-25 04:06 -13.53688 -71.94459 10795 ft 15 kts 218°
2026-04-25 04:06 -13.53703 -71.94524 10800 ft 0 kts 262°